Regional Weather Roundup
Issued by NWS

Home | Current Version | Previous Version | Text Only | Print | Product List | Glossary Off
Versions: 1 2 3 4 5 6 7 8 9 10 11 12 13 14 15 16 17 18 19 20 21 22 23 24 25 26 27 28 29 30 31 32 33 34 35 36 37 38 39 40 41 42 43 44 45 46 47 48 49 50

000
ASUS43 KDTX 222001
RWRMI
MICHIGAN HOURLY REGIONAL WEATHER ROUNDUP
NATIONAL WEATHER SERVICE DETROIT/PONTIAC MI
300 PM EST MON DEC 22 2014

NOTE: "FAIR" INDICATES FEW OR NO CLOUDS BELOW 12,000 FEET WITH NO
SIGNIFICANT WEATHER AND/OR OBSTRUCTION TO VISIBILITY.

MIZ047>049-052>055-059>063-066>070-074>076-081>083-222100-
SOUTHEAST LOWER MICHIGAN

CITY           SKY/WX    TMP DP  RH WIND       PRES   REMARKS
ADRIAN         CLOUDY    37  30  75 E9        29.93F WCI  30
ALMA           CLOUDY    36  28  73 E6        29.94S WCI  31
ANN ARBOR      CLOUDY    39  30  70 E9        29.93F WCI  33
BAD AXE        PTSUNNY   33  29  83 E8        30.00S WCI  27
CARO           SUNNY     38  27  64 SE9       29.96S WCI  32
DETROIT CITY   MOSUNNY   39  29  67 E9        29.98F WCI  33
DETROIT        CLOUDY    39  30  70 NE9       29.94F WCI  33
FLINT          PTSUNNY   41  28  60 E10       29.95F
GROSSE ILE     CLOUDY    39  32  75 NE8       29.92F WCI  34
HILLSDALE      CLOUDY    38  31  76 E13       29.88F WCI  30
HOWELL         CLOUDY    38  28  68 SE10      29.92F WCI  31

CITY           SKY/WX    TMP DP  RH WIND       PRES   REMARKS
JACKSON        CLOUDY    37  29  72 SE9       29.90F WCI  30
LAMBERTVILLE   CLOUDY    36  30  80 E8        29.94R WCI  29
LANSING        CLOUDY    38  28  67 E9        29.92F WCI  31
LAPEER         FAIR      37  28  70 SE6       29.96F WCI  32
MASON          CLOUDY    37  29  72 SE8       29.91F WCI  31
MONROE         CLOUDY    37  30  75 E9        29.93S WCI  31
MT. CLEMENS    PTSUNNY   38  33  82 E8        29.96F WCI  32
PONTIAC        CLOUDY    36  29  75 E10       29.94F WCI  28
PORT HOPE        N/A     33  27  78 SE13      29.99F WCI  24
PORT HURON     SUNNY     37  30  75 SE8       30.00R WCI  31
TRI CITIES     CLOUDY    38  27  64 E9        29.96F WCI  31
TROY           PTSUNNY   39  31  72 E9        29.98F WCI  32
SAGINAW HB     CLOUDY    37  28  70 E8        29.95F WCI  31
$$
MIZ043>046-050>051-056>058-064>065-071>073-077>080-222100-
SOUTHWEST LOWER MICHIGAN

CITY           SKY/WX    TMP DP  RH WIND       PRES   REMARKS
BATTLE CREEK   CLOUDY    39  29  67 SE12G21   29.87F WCI  32
BENTON HARBOR  MIX PCPN  35  32  88 E14       29.80F FOG     WCI  26
BIG RAPIDS     CLOUDY    34  29  80 E10G16    29.89F WCI  26
COLDWATER      CLOUDY    38  29  70 SE10G17   29.86F WCI  31
FREMONT        CLOUDY    36  27  70 E10       29.87F WCI  28
HOLLAND        LGT RAIN  37  29  72 E13       29.85F WCI  29
GRAND RAPIDS   FLURRIES  36  28  73 E13       29.88F WCI  27
IONIA          CLOUDY    38  29  70 E8        29.90S WCI  32
KALAMAZOO      LGT RAIN  38  30  73 SE8       29.86F WCI  32
LUDINGTON      CLOUDY    37  28  71 SE9       29.87S WCI  30
MARSHALL       CLOUDY    38  29  71 E8        29.87F WCI  32
MOUNT PLEASANT CLOUDY    36  26  65 E9        29.94R WCI  29
MUSKEGON       LGT RAIN  38  28  67 E14G22    29.86F WCI  30
SOUTH HAVEN    DRIZZLE   37  32  83 E10       29.82F WCI  29
$$
MIZ016>042-222100-
NORTHERN LOWER MICHIGAN

CITY           SKY/WX    TMP DP  RH WIND       PRES   REMARKS
ALPENA         CLOUDY    34  28  79 SE12      30.01F WCI  25
BEAVER ISLAND  CLOUDY    36  28  72 SE14      29.93S WCI  27
BELLAIRE       MOSUNNY   37  25  60 S8        29.93S WCI  31
CADILLAC       CLOUDY    32  25  74 SE9G16    29.89R WCI  24
CHARLEVOIX     SUNNY     37  26  66 E9        29.94F WCI  30
FRANKFORT      CLOUDY    37  26  64 SE9       29.88S WCI  31
GAYLORD        SUNNY     32  24  72 SE13      29.91F WCI  22
GRAYLING       SUNNY     33  25  72 SE12      29.94R WCI  24
HARBOR SPRINGS SUNNY     36  25  66 E9        29.94F WCI  29
HOUGHTON LAKE  CLOUDY    32  24  72 E12       29.93F WCI  23
MANISTEE       CLOUDY    37  23  56 E8        29.88F WCI  31
OSCODA         CLOUDY    33  27  77 E5        29.99F WCI  29
PELLSTON       SUNNY     34  26  72 SE9       29.96F WCI  27
ROGERS CITY    CLOUDY    34  30  85 SE12      30.01S WCI  25
TRAVERSE CITY  CLOUDY    37  25  61 SE8       29.90F WCI  31
$$
MIZ007>008-015-222100-
EASTERN UPPER MICHIGAN

CITY           SKY/WX    TMP DP  RH WIND       PRES   REMARKS
KINROSS        PTSUNNY   34  30  86 SE17      29.97S WCI  23
MACKINAC ISLAN SUNNY     35  28  75 E7        29.96F WCI  29
NEWBERRY       PTSUNNY   33  28  80 SE10      29.93S WCI  25
S. S. MARIE    CLOUDY    34  27  75 SE13G24   29.96F WCI  25
MUNISING         N/A     36  29  75 S13G20    29.88S WCI  27
$$
MIZ004>006-011>014-085-222100-
CENTRAL UPPER MICHIGAN

CITY           SKY/WX    TMP DP  RH WIND       PRES   REMARKS
MANISTIQUE     CLOUDY    35  30  83 SE12G20   29.91F WCI  27
ESCANABA       PTSUNNY   36  30  80 SE12      29.87S WCI  27
MENOMINEE      CLOUDY    34  30  86 SE14      29.84S WCI  24
SAWYER-GWINN   CLOUDY    32  30  93 S12       29.84S FOG     WCI  23
$$
MIZ001>003-009>011-084-222100-
WESTERN UPPER MICHIGAN

CITY           SKY/WX    TMP DP  RH WIND       PRES   REMARKS
IRON MOUNTAIN  CLOUDY    34  32  92 SE7       29.80F FOG     WCI  28
HOUGHTON       CLOUDY    35  32  88 SE10      29.78S WCI  27
COPPER HARBOR    N/A     37  33  85 SW8G18    29.81S WCI  31
IRONWOOD       CLOUDY    36  34  93 SE8       29.69F WCI  29
$$

ABBREVIATIONS USED IN REMARKS
   TC - TEMPERATURE IN CELSIUS
  WCI - WIND CHILL INDEX
   HX - HEAT INDEX
  VSB - VISIBILITY



USA.gov is the U.S. government's official web portal to all federal, state and local government web resources and services.